LAN820 SLLP-SLVR

Flight info

Callsign LAN820
Flight time 0h 48m
Altitude 39000
Route DAKOG UW677 VIR
Aircraft A20N/M-SDE2E3FGHIRWXY/LB1

Departure

Time 2026-04-26 15:02
Airport El Alto International Airport (SLLP)

Arrival

Time 2026-04-26 15:50
Airport Viru Viru International Airport (SLVR)
Time Latitude Longitude Altitude Speed Heading
2026-04-26 14:34 -16.50950 -68.17720 13336 ft 0 kts 26°
2026-04-26 14:49 -16.50954 -68.17722 13336 ft 3 kts 26°
2026-04-26 14:49 -16.50977 -68.17734 13336 ft 2 kts 26°
2026-04-26 14:49 -16.50994 -68.17746 13336 ft 4 kts 79°
2026-04-26 14:49 -16.50994 -68.17774 13335 ft 4 kts 92°
2026-04-26 14:50 -16.50994 -68.17799 13335 ft 4 kts 93°
2026-04-26 14:50 -16.50993 -68.17812 13335 ft 1 kts 92°
2026-04-26 14:53 -16.50993 -68.17804 13335 ft 2 kts 91°
2026-04-26 14:53 -16.50994 -68.17780 13335 ft 4 kts 92°
2026-04-26 14:54 -16.51003 -68.17742 13335 ft 6 kts 115°
2026-04-26 14:54 -16.51026 -68.17697 13335 ft 8 kts 117°
2026-04-26 14:54 -16.51057 -68.17639 13335 ft 10 kts 123°
2026-04-26 14:54 -16.51111 -68.17571 13332 ft 14 kts 130°
2026-04-26 14:55 -16.51180 -68.17486 13330 ft 13 kts 129°
2026-04-26 14:55 -16.51215 -68.17442 13329 ft 7 kts 129°
2026-04-26 14:55 -16.51241 -68.17409 13328 ft 0 kts 130°
2026-04-26 14:56 -16.51242 -68.17408 13328 ft 0 kts 130°
2026-04-26 14:57 -16.51249 -68.17399 13329 ft 5 kts 131°
2026-04-26 14:58 -16.51283 -68.17374 13325 ft 5 kts 152°
2026-04-26 14:58 -16.51294 -68.17370 13327 ft 0 kts 162°
2026-04-26 14:58 -16.51295 -68.17369 13327 ft 2 kts 162°
2026-04-26 14:58 -16.51336 -68.17361 13325 ft 9 kts 176°
2026-04-26 14:59 -16.51389 -68.17385 13327 ft 8 kts 245°
2026-04-26 14:59 -16.51391 -68.17421 13325 ft 0 kts 269°
2026-04-26 15:00 -16.51391 -68.17446 13324 ft 22 kts 271°
2026-04-26 15:01 -16.51379 -68.17835 13318 ft 84 kts 271°
2026-04-26 15:01 -16.51353 -68.18625 13295 ft 134 kts 271°
2026-04-26 15:01 -16.51316 -68.19753 13250 ft 175 kts 272°
2026-04-26 15:01 -16.51263 -68.21099 13571 ft 184 kts 274°
2026-04-26 15:02 -16.51189 -68.22465 14132 ft 194 kts 272°
2026-04-26 15:02 -16.51142 -68.23896 14683 ft 199 kts 271°
2026-04-26 15:02 -16.51112 -68.25337 15153 ft 203 kts 270°
2026-04-26 15:02 -16.51076 -68.26861 15405 ft 221 kts 271°
2026-04-26 15:03 -16.51032 -68.28548 15582 ft 244 kts 271°
2026-04-26 15:03 -16.50981 -68.30414 15680 ft 271 kts 270°
2026-04-26 15:03 -16.51369 -68.32405 15834 ft 295 kts 244°
2026-04-26 15:03 -16.52636 -68.34174 15993 ft 318 kts 220°
2026-04-26 15:04 -16.54613 -68.35349 16156 ft 341 kts 198°
2026-04-26 15:04 -16.57022 -68.35687 16323 ft 362 kts 176°
2026-04-26 15:04 -16.59530 -68.35091 16536 ft 379 kts 156°
2026-04-26 15:04 -16.61744 -68.33605 17195 ft 381 kts 137°
2026-04-26 15:05 -16.63410 -68.31456 17871 ft 384 kts 119°
2026-04-26 15:05 -16.64134 -68.29768 18298 ft 387 kts 107°
2026-04-26 15:05 -16.64534 -68.26044 19152 ft 391 kts 85°
2026-04-26 15:05 -16.64367 -68.23231 19724 ft 395 kts 89°
2026-04-26 15:06 -16.64596 -68.20368 20287 ft 399 kts 100°
2026-04-26 15:06 -16.65305 -68.17563 20832 ft 402 kts 108°
2026-04-26 15:06 -16.66333 -68.14830 21328 ft 406 kts 113°
2026-04-26 15:06 -16.67523 -68.12147 21830 ft 410 kts 115°
2026-04-26 15:07 -16.70071 -68.06765 22870 ft 417 kts 116°
2026-04-26 15:07 -16.71365 -68.04034 23312 ft 421 kts 115°
2026-04-26 15:07 -16.72662 -68.01281 23761 ft 425 kts 115°
2026-04-26 15:08 -16.73945 -67.98490 24196 ft 427 kts 112°
2026-04-26 15:08 -16.74968 -67.95570 24608 ft 430 kts 105°
2026-04-26 15:08 -16.75727 -67.92543 24973 ft 433 kts 103°
2026-04-26 15:08 -16.76481 -67.89487 25411 ft 435 kts 104°
2026-04-26 15:09 -16.77244 -67.86423 25865 ft 438 kts 104°
2026-04-26 15:09 -16.78014 -67.83336 26247 ft 442 kts 104°
2026-04-26 15:09 -16.78789 -67.80228 26688 ft 444 kts 104°
2026-04-26 15:09 -16.79557 -67.77141 27092 ft 446 kts 104°
2026-04-26 15:10 -16.80341 -67.73992 27432 ft 450 kts 104°
2026-04-26 15:10 -16.80872 -67.71856 27726 ft 451 kts 104°
2026-04-26 15:10 -16.81918 -67.67645 28234 ft 455 kts 104°
2026-04-26 15:10 -16.82715 -67.64430 28553 ft 460 kts 104°
2026-04-26 15:11 -16.83518 -67.61194 28966 ft 461 kts 104°
2026-04-26 15:11 -16.84321 -67.57955 29336 ft 463 kts 104°
2026-04-26 15:11 -16.85132 -67.54676 29631 ft 467 kts 104°
2026-04-26 15:11 -16.85947 -67.51387 30039 ft 469 kts 104°
2026-04-26 15:12 -16.86762 -67.48088 30393 ft 471 kts 104°
2026-04-26 15:12 -16.87585 -67.44757 30635 ft 475 kts 104°
2026-04-26 15:12 -16.88411 -67.41413 31005 ft 475 kts 104°
2026-04-26 15:12 -16.89259 -67.38073 31368 ft 477 kts 107°
2026-04-26 15:13 -16.90392 -67.34806 31697 ft 479 kts 113°
2026-04-26 15:13 -16.91791 -67.31657 32190 ft 476 kts 115°
2026-04-26 15:13 -16.93189 -67.28527 32632 ft 476 kts 115°
2026-04-26 15:13 -16.94581 -67.25392 33071 ft 476 kts 114°
2026-04-26 15:14 -16.95967 -67.22265 33501 ft 475 kts 114°
2026-04-26 15:14 -16.97350 -67.19144 34031 ft 471 kts 114°
2026-04-26 15:14 -16.98727 -67.16038 34375 ft 472 kts 114°
2026-04-26 15:14 -17.00108 -67.12921 34697 ft 472 kts 114°
2026-04-26 15:15 -17.01485 -67.09812 35068 ft 470 kts 114°
2026-04-26 15:15 -17.02857 -67.06713 35397 ft 470 kts 114°
2026-04-26 15:15 -17.04231 -67.03609 35630 ft 472 kts 114°
2026-04-26 15:15 -17.05606 -67.00502 35998 ft 470 kts 114°
2026-04-26 15:16 -17.06974 -66.97407 36400 ft 468 kts 115°
2026-04-26 15:16 -17.08339 -66.94317 36698 ft 468 kts 114°
2026-04-26 15:16 -17.09703 -66.91229 36995 ft 468 kts 114°
2026-04-26 15:16 -17.11066 -66.88140 37304 ft 468 kts 114°
2026-04-26 15:17 -17.12433 -66.85042 37534 ft 469 kts 114°
2026-04-26 15:17 -17.13338 -66.82990 37698 ft 469 kts 114°
2026-04-26 15:17 -17.15139 -66.78905 38115 ft 468 kts 114°
2026-04-26 15:17 -17.16507 -66.75800 38438 ft 467 kts 114°
2026-04-26 15:18 -17.17866 -66.72715 38678 ft 467 kts 114°
2026-04-26 15:18 -17.19232 -66.69630 38926 ft 466 kts 114°
2026-04-26 15:18 -17.20597 -66.66561 39156 ft 465 kts 114°
2026-04-26 15:18 -17.21969 -66.63480 39308 ft 466 kts 114°
2026-04-26 15:19 -17.24694 -66.57347 39313 ft 463 kts 114°
2026-04-26 15:19 -17.27413 -66.51215 39299 ft 465 kts 114°
2026-04-26 15:20 -17.30115 -66.45114 39317 ft 465 kts 114°
2026-04-26 15:20 -17.32835 -66.38967 39316 ft 465 kts 114°
2026-04-26 15:21 -17.35554 -66.32818 39325 ft 466 kts 114°
2026-04-26 15:21 -17.38275 -66.26656 39329 ft 466 kts 114°
2026-04-26 15:22 -17.40801 -66.20395 39330 ft 466 kts 107°
2026-04-26 15:22 -17.42309 -66.13810 39331 ft 465 kts 97°
2026-04-26 15:23 -17.42868 -66.07077 39318 ft 464 kts 93°
2026-04-26 15:23 -17.43331 -66.00399 39312 ft 462 kts 93°
2026-04-26 15:24 -17.43795 -65.93684 39297 ft 463 kts 93°
2026-04-26 15:24 -17.44252 -65.86958 39288 ft 463 kts 93°
2026-04-26 15:25 -17.44628 -65.81374 39288 ft 462 kts 93°
2026-04-26 15:25 -17.45151 -65.73542 39258 ft 458 kts 92°
2026-04-26 15:26 -17.45598 -65.66828 39287 ft 464 kts 92°
2026-04-26 15:26 -17.46045 -65.60101 39278 ft 462 kts 93°
2026-04-26 15:27 -17.46488 -65.53401 39274 ft 461 kts 93°
2026-04-26 15:27 -17.46942 -65.46702 39257 ft 462 kts 93°
2026-04-26 15:28 -17.47394 -65.40001 39250 ft 460 kts 93°
2026-04-26 15:28 -17.47840 -65.33317 39215 ft 459 kts 93°
2026-04-26 15:29 -17.48303 -65.26652 39225 ft 458 kts 93°
2026-04-26 15:29 -17.48767 -65.19983 38822 ft 459 kts 92°
2026-04-26 15:30 -17.49223 -65.13350 38291 ft 460 kts 93°
2026-04-26 15:30 -17.49452 -65.10006 38009 ft 461 kts 93°
2026-04-26 15:30 -17.49680 -65.06648 37752 ft 463 kts 93°
2026-04-26 15:31 -17.49909 -65.03284 37497 ft 462 kts 93°
2026-04-26 15:31 -17.50366 -64.96531 36781 ft 468 kts 94°
2026-04-26 15:31 -17.50595 -64.93124 36134 ft 470 kts 94°
2026-04-26 15:32 -17.50979 -64.87398 34716 ft 478 kts 94°
2026-04-26 15:32 -17.51291 -64.82720 33313 ft 486 kts 94°
2026-04-26 15:32 -17.51527 -64.79190 32504 ft 484 kts 94°
2026-04-26 15:33 -17.51761 -64.75670 31577 ft 485 kts 94°
2026-04-26 15:33 -17.51994 -64.72157 30955 ft 479 kts 94°
2026-04-26 15:33 -17.52223 -64.68689 30284 ft 476 kts 95°
2026-04-26 15:33 -17.52450 -64.65252 29639 ft 469 kts 94°
2026-04-26 15:34 -17.52674 -64.61866 29003 ft 463 kts 94°
2026-04-26 15:34 -17.52896 -64.58514 28358 ft 457 kts 94°
2026-04-26 15:34 -17.53114 -64.55208 27738 ft 452 kts 94°
2026-04-26 15:34 -17.53172 -64.51973 27127 ft 447 kts 88°
2026-04-26 15:35 -17.53121 -64.48725 26481 ft 444 kts 89°
2026-04-26 15:35 -17.53079 -64.45506 25857 ft 440 kts 89°
2026-04-26 15:35 -17.53040 -64.42317 25259 ft 436 kts 88°
2026-04-26 15:35 -17.53001 -64.39142 24647 ft 433 kts 88°
2026-04-26 15:36 -17.52959 -64.35990 24040 ft 431 kts 87°
2026-04-26 15:36 -17.52918 -64.32854 23367 ft 429 kts 88°
2026-04-26 15:36 -17.52875 -64.29746 22751 ft 424 kts 88°
2026-04-26 15:36 -17.52832 -64.26674 22152 ft 419 kts 88°
2026-04-26 15:37 -17.52789 -64.23634 21551 ft 415 kts 88°
2026-04-26 15:37 -17.52745 -64.20626 20933 ft 412 kts 88°
2026-04-26 15:37 -17.52702 -64.17633 20335 ft 409 kts 88°
2026-04-26 15:37 -17.52658 -64.14666 19727 ft 406 kts 88°
2026-04-26 15:38 -17.52614 -64.11715 19113 ft 404 kts 88°
2026-04-26 15:38 -17.52569 -64.08782 18499 ft 402 kts 88°
2026-04-26 15:38 -17.52524 -64.05866 17854 ft 400 kts 88°
2026-04-26 15:38 -17.52480 -64.02972 17305 ft 394 kts 88°
2026-04-26 15:39 -17.52436 -64.00114 16724 ft 391 kts 88°
2026-04-26 15:39 -17.52392 -63.97272 16126 ft 388 kts 88°
2026-04-26 15:39 -17.52348 -63.94455 15522 ft 386 kts 88°
2026-04-26 15:39 -17.52333 -63.93541 15346 ft 385 kts 87°
2026-04-26 15:40 -17.52259 -63.88869 14389 ft 381 kts 87°
2026-04-26 15:40 -17.52215 -63.86099 13806 ft 379 kts 87°
2026-04-26 15:40 -17.52170 -63.83342 13208 ft 376 kts 87°
2026-04-26 15:40 -17.52126 -63.80646 12662 ft 373 kts 87°
2026-04-26 15:41 -17.52081 -63.77938 12109 ft 370 kts 87°
2026-04-26 15:41 -17.52036 -63.75251 11557 ft 367 kts 86°
2026-04-26 15:41 -17.51992 -63.72589 11010 ft 364 kts 87°
2026-04-26 15:41 -17.51947 -63.69936 10424 ft 363 kts 86°
2026-04-26 15:42 -17.51904 -63.67335 10211 ft 350 kts 86°
2026-04-26 15:42 -17.51862 -63.64834 10076 ft 336 kts 86°
2026-04-26 15:42 -17.51822 -63.62438 9948 ft 322 kts 86°
2026-04-26 15:42 -17.51782 -63.60124 9620 ft 315 kts 86°
2026-04-26 15:43 -17.51740 -63.57843 9218 ft 312 kts 86°
2026-04-26 15:43 -17.51698 -63.55574 8810 ft 310 kts 86°
2026-04-26 15:43 -17.51631 -63.51844 8136 ft 306 kts 86°
2026-04-26 15:44 -17.51590 -63.49620 7731 ft 305 kts 86°
2026-04-26 15:44 -17.51509 -63.45199 6906 ft 302 kts 86°
2026-04-26 15:44 -17.51468 -63.43030 6678 ft 301 kts 86°
2026-04-26 15:45 -17.51382 -63.38715 5764 ft 296 kts 85°
2026-04-26 15:45 -17.51345 -63.36568 5394 ft 293 kts 85°
2026-04-26 15:46 -17.50955 -63.32423 4785 ft 279 kts 73°
2026-04-26 15:46 -17.50522 -63.30490 4495 ft 274 kts 73°
2026-04-26 15:46 -17.50099 -63.28563 4202 ft 269 kts 73°
2026-04-26 15:46 -17.49819 -63.27277 4004 ft 267 kts 73°
2026-04-26 15:47 -17.49608 -63.24735 3610 ft 269 kts 99°
2026-04-26 15:47 -17.51776 -63.21744 3104 ft 259 kts 148°
2026-04-26 15:47 -17.53289 -63.20795 2893 ft 246 kts 152°
2026-04-26 15:48 -17.54731 -63.19941 2856 ft 228 kts 152°
2026-04-26 15:48 -17.56039 -63.19143 2869 ft 206 kts 151°
2026-04-26 15:48 -17.57178 -63.18416 2857 ft 178 kts 150°
2026-04-26 15:48 -17.58183 -63.17768 2811 ft 166 kts 152°
2026-04-26 15:49 -17.59153 -63.17135 2543 ft 163 kts 148°
2026-04-26 15:49 -17.60097 -63.16455 2134 ft 166 kts 148°
2026-04-26 15:49 -17.61053 -63.15814 1732 ft 155 kts 151°
2026-04-26 15:49 -17.61893 -63.15249 1545 ft 132 kts 150°
2026-04-26 15:50 -17.62639 -63.14751 1402 ft 127 kts 150°
2026-04-26 15:50 -17.63406 -63.14250 1249 ft 129 kts 150°
2026-04-26 15:50 -17.64073 -63.13807 1228 ft 89 kts 148°
2026-04-26 15:50 -17.64423 -63.13571 1232 ft 31 kts 148°
2026-04-26 15:51 -17.64531 -63.13500 1233 ft 28 kts 148°
2026-04-26 15:51 -17.64726 -63.13369 1232 ft 35 kts 147°
2026-04-26 15:51 -17.64935 -63.13229 1230 ft 31 kts 147°
2026-04-26 15:51 -17.65050 -63.13156 1231 ft 13 kts 165°
2026-04-26 15:52 -17.65117 -63.13191 1231 ft 12 kts 232°
2026-04-26 15:52 -17.65163 -63.13266 1231 ft 12 kts 243°
2026-04-26 15:52 -17.65122 -63.13342 1231 ft 16 kts 328°
2026-04-26 15:52 -17.65057 -63.13384 1231 ft 17 kts 328°
2026-04-26 15:53 -17.64909 -63.13484 1231 ft 16 kts 327°
2026-04-26 15:53 -17.64816 -63.13547 1231 ft 18 kts 326°
2026-04-26 15:53 -17.64807 -63.13620 1231 ft 9 kts 245°
2026-04-26 15:53 -17.64843 -63.13679 1231 ft 10 kts 239°
2026-04-26 15:54 -17.64880 -63.13743 1231 ft 10 kts 243°
2026-04-26 15:54 -17.64864 -63.13803 1231 ft 9 kts 327°
2026-04-26 15:54 -17.64831 -63.13833 1231 ft 2 kts 284°
2026-04-26 15:54 -17.64832 -63.13848 1231 ft 2 kts 261°
2026-04-26 15:55 -17.64839 -63.13866 1231 ft 3 kts 239°
2026-04-26 15:55 -17.64852 -63.13884 1231 ft 4 kts 236°
2026-04-26 15:55 -17.64863 -63.13903 1231 ft 0 kts 237°